{"data":{"norad_id":64749,"intl_designator":"2025-144AB","name":"STARLINK-34595","alt_names":[],"object_type":"PAYLOAD","status":"ACTIVE","operator":null,"country":"US","launch_date":"2025-07-02","launch_site_code":"AFETR","launch_vehicle":null,"mission":null,"orbit_class":"UNKNOWN","rcs_meters":null,"size_class":null,"mass_kg":null,"dimensions":null,"purposes":["comms"],"wikipedia_slug":null,"has_3d_model":false,"image_url":null,"decayed_at":null,"tle_current":{"epoch":"2026-05-25T03:04:03.658368Z","epoch_age_seconds":67972,"freshness":"FRESH","line1":"1 64749U 25144AB  26145.12782012  .00010375  00000+0  36185-3 0  9998","line2":"2 64749  53.1574 186.0719 0000991  84.6362 275.4752 15.30206053 51415","mean_motion":15.30206053,"eccentricity":9.91e-5,"inclination_deg":53.1574,"raan_deg":186.0719,"arg_perigee_deg":84.6362,"mean_anomaly_deg":275.4752,"bstar":0.00036185,"rev_number":5141,"period_min":94.104973456147,"perigee_km":474.51783091293,"apogee_km":475.87616171099,"semimajor_km":6853.333996312,"source":"CELESTRAK","updated_at":"2026-05-25T13:38:20.551184Z"}}}